| time (UTC) | temp F | wind direction | speed knots | gust knots | rain 1hr in | rain 24hr in | rain mn in | humidity % | barometer mb |
| 20260502181748 | 68 | 0 | 0.0 | 0.0 | 0.00 | 0.00 | 0.00 | 34 | 1019.2 |
| 20260502181031 | 68 | 0 | 0.0 | 0.0 | 0.00 | 0.00 | 0.00 | 34 | 1019.2 |
| 20260502180312 | 68 | 0 | 0.0 | 0.0 | 0.00 | 0.00 | 0.00 | 34 | 1019.2 |
| 20260502170151 | 73 | 0 | 0.0 | 0.0 | 0.00 | 0.00 | 0.00 | 27 | 1019.6 |
| 20260502163955 | 88 | 0 | 0.0 | 0.0 | 0.00 | 0.00 | 0.00 | 16 | 1019.6 |
| 20260502163237 | 90 | 0 | 0.0 | 0.0 | 0.00 | 0.00 | 0.00 | 16 | 1019.6 |
| 20260502162516 | 90 | 0 | 0.0 | 0.0 | 0.00 | 0.00 | 0.00 | 16 | 1019.8 |
| 20260502161757 | 90 | 0 | 0.0 | 0.0 | 0.00 | 0.00 | 0.00 | 16 | 1019.8 |
| 20260502161037 | 91 | 0 | 0.0 | 0.0 | 0.00 | 0.00 | 0.00 | 17 | 1019.9 |
| 20260502160319 | 90 | 0 | 0.0 | 0.0 | 0.00 | 0.00 | 0.00 | 17 | 1020.2 |
| 20260502151952 | 88 | 0 | 0.0 | 0.0 | 0.00 | 0.00 | 0.00 | 16 | 1020.6 |
| 20260502150948 | 90 | 0 | 0.0 | 0.0 | 0.00 | 0.00 | 0.00 | 16 | 1020.6 |
| 20260502150228 | 86 | 0 | 0.0 | 0.0 | 0.00 | 0.00 | 0.00 | 18 | 1020.8 |
| 20260502130147 | 75 | 0 | 0.0 | 0.0 | 0.00 | 0.00 | 0.00 | 24 | 1023.1 |
| 20260502123750 | 76 | 0 | 0.0 | 0.0 | 0.00 | 0.00 | 0.00 | 25 | 1022.8 |
| 20260502122942 | 76 | 0 | 0.0 | 0.0 | 0.00 | 0.00 | 0.00 | 24 | 1022.8 |
| 20260502122141 | 76 | 0 | 0.0 | 0.0 | 0.00 | 0.00 | 0.00 | 24 | 1023.0 |
| 20260502121342 | 76 | 0 | 0.0 | 0.0 | 0.00 | 0.00 | 0.00 | 24 | 1023.0 |
| 20260502120547 | 74 | 0 | 0.0 | 0.0 | 0.00 | 0.00 | 0.00 | 25 | 1023.2 |
| 20260502115749 | 74 | 0 | 0.0 | 0.0 | 0.00 | 0.00 | 0.00 | 26 | 1023.2 |
| 20260502114949 | 74 | 0 | 0.0 | 0.0 | 0.00 | 0.00 | 0.00 | 25 | 1023.4 |
| 20260502114157 | 73 | 0 | 0.0 | 0.0 | 0.00 | 0.00 | 0.00 | 24 | 1023.5 |
| 20260502113417 | 74 | 0 | 0.0 | 0.0 | 0.00 | 0.00 | 0.00 | 26 | 1023.6 |
| 20260502112644 | 74 | 0 | 0.0 | 0.0 | 0.00 | 0.00 | 0.00 | 26 | 1023.8 |
| 20260502111631 | 73 | 0 | 0.0 | 0.0 | 0.00 | 0.00 | 0.00 | 27 | 1023.8 |
| 20260502110911 | 72 | 0 | 0.0 | 0.0 | 0.00 | 0.00 | 0.00 | 27 | 1024.0 |
| 20260502110152 | 72 | 0 | 0.0 | 0.0 | 0.00 | 0.00 | 0.00 | 29 | 1024.0 |
| 20260502105432 | 71 | 0 | 0.0 | 0.0 | 0.00 | 0.00 | 0.00 | 30 | 1024.0 |
| 20260502104713 | 72 | 0 | 0.0 | 0.0 | 0.00 | 0.00 | 0.00 | 28 | 1024.2 |
| 20260502103953 | 72 | 0 | 0.0 | 0.0 | 0.00 | 0.00 | 0.00 | 30 | 1024.4 |
| 20260502103235 | 72 | 0 | 0.0 | 0.0 | 0.00 | 0.00 | 0.00 | 30 | 1024.5 |
| 20260502102514 | 72 | 0 | 0.0 | 0.0 | 0.00 | 0.00 | 0.00 | 32 | 1024.4 |
| 20260502101756 | 71 | 0 | 0.0 | 0.0 | 0.00 | 0.00 | 0.00 | 32 | 1024.6 |
| 20260502101036 | 70 | 0 | 0.0 | 0.0 | 0.00 | 0.00 | 0.00 | 30 | 1024.7 |
| 20260502100316 | 72 | 0 | 0.0 | 0.0 | 0.00 | 0.00 | 0.00 | 31 | 1024.7 |
| 20260502090915 | 68 | 0 | 0.0 | 0.0 | 0.00 | 0.00 | 0.00 | 40 | 1025.4 |
| 20260502090156 | 68 | 0 | 0.0 | 0.0 | 0.00 | 0.00 | 0.00 | 42 | 1025.4 |
| 20260502070859 | 57 | 0 | 0.0 | 0.0 | 0.00 | 0.00 | 0.00 | 56 | 1026.4 |
| 20260502070117 | 56 | 0 | 0.0 | 0.0 | 0.00 | 0.00 | 0.00 | 57 | 1026.4 |
| 20260502065337 | 56 | 0 | 0.0 | 0.0 | 0.00 | 0.00 | 0.00 | 58 | 1026.4 |
| 20260502064557 | 54 | 0 | 0.0 | 0.0 | 0.00 | 0.00 | 0.00 | 60 | 1026.5 |
| 20260502063815 | 54 | 0 | 0.0 | 0.0 | 0.00 | 0.00 | 0.00 | 62 | 1026.5 |
| 20260502063035 | 54 | 0 | 0.0 | 0.0 | 0.00 | 0.00 | 0.00 | 62 | 1026.6 |
| 20260502062257 | 52 | 0 | 0.0 | 0.0 | 0.00 | 0.00 | 0.00 | 64 | 1026.6 |
| 20260502061517 | 52 | 0 | 0.0 | 0.0 | 0.00 | 0.00 | 0.00 | 65 | 1026.5 |
| 20260502060740 | 51 | 0 | 0.0 | 0.0 | 0.00 | 0.00 | 0.00 | 66 | 1026.6 |
| 20260502060000 | 50 | 0 | 0.0 | 0.0 | 0.00 | 0.00 | 0.00 | 68 | 1026.6 |
| 20260502055231 | 50 | 0 | 0.0 | 0.0 | 0.00 | 0.00 | 0.00 | 68 | 1026.5 |
| 20260502054509 | 49 | 0 | 0.0 | 0.0 | 0.00 | 0.00 | 0.00 | 70 | 1026.5 |
| 20260502053508 | 49 | 0 | 0.0 | 0.0 | 0.00 | 0.00 | 0.00 | 70 | 1026.5 |
| 20260502051326 | 47 | 0 | 0.0 | 0.0 | 0.00 | 0.00 | 0.00 | 74 | 1026.4 |
| 20260502050609 | 46 | 0 | 0.0 | 0.0 | 0.00 | 0.00 | 0.00 | 74 | 1026.5 |
| 20260502045849 | 46 | 0 | 0.0 | 0.0 | 0.00 | 0.00 | 0.00 | 76 | 1026.5 |
| 20260502045130 | 46 | 0 | 0.0 | 0.0 | 0.00 | 0.00 | 0.00 | 76 | 1026.4 |
| 20260502044412 | 46 | 0 | 0.0 | 0.0 | 0.00 | 0.00 | 0.00 | 76 | 1026.4 |
| 20260502043653 | 46 | 0 | 0.0 | 0.0 | 0.00 | 0.00 | 0.00 | 76 | 1026.4 |
| 20260502042935 | 46 | 0 | 0.0 | 0.0 | 0.00 | 0.00 | 0.00 | 76 | 1026.4 |
| 20260502042218 | 47 | 0 | 0.0 | 0.0 | 0.00 | 0.00 | 0.00 | 72 | 1026.3 |
| 20260502041458 | 51 | 0 | 0.0 | 0.0 | 0.00 | 0.00 | 0.00 | 66 | 1026.4 |
| 20260502040741 | 50 | 0 | 0.0 | 0.0 | 0.00 | 0.00 | 0.00 | 70 | 1026.4 |
| 20260502040023 | 46 | 0 | 0.0 | 0.0 | 0.00 | 0.00 | 0.00 | 74 | 1026.5 |
| 20260502035307 | 44 | 0 | 0.0 | 0.0 | 0.00 | 0.00 | 0.00 | 79 | 1026.3 |
| 20260502034305 | 42 | 0 | 0.0 | 0.0 | 0.00 | 0.00 | 0.00 | 83 | 1026.4 |
| 20260502033547 | 42 | 0 | 0.0 | 0.0 | 0.00 | 0.00 | 0.00 | 82 | 1026.4 |
| 20260502032829 | 42 | 0 | 0.0 | 0.0 | 0.00 | 0.00 | 0.00 | 82 | 1026.4 |
| 20260502032111 | 44 | 0 | 0.0 | 0.0 | 0.00 | 0.00 | 0.00 | 80 | 1026.4 |
| 20260502031353 | 44 | 0 | 0.0 | 0.0 | 0.00 | 0.00 | 0.00 | 80 | 1026.4 |
| 20260502030637 | 44 | 0 | 0.0 | 0.0 | 0.00 | 0.00 | 0.00 | 80 | 1026.4 |
| 20260502025918 | 44 | 0 | 0.0 | 0.0 | 0.00 | 0.00 | 0.00 | 82 | 1026.3 |
| 20260502025159 | 43 | 0 | 0.0 | 0.0 | 0.00 | 0.00 | 0.00 | 81 | 1026.3 |
| 20260502024442 | 44 | 0 | 0.0 | 0.0 | 0.00 | 0.00 | 0.00 | 80 | 1026.4 |
| 20260502023724 | 44 | 0 | 0.0 | 0.0 | 0.00 | 0.00 | 0.00 | 80 | 1026.4 |
| 20260502023007 | 44 | 0 | 0.0 | 0.0 | 0.00 | 0.00 | 0.00 | 79 | 1026.4 |
| 20260502022251 | 44 | 0 | 0.0 | 0.0 | 0.00 | 0.00 | 0.00 | 79 | 1026.5 |
| 20260502021532 | 44 | 0 | 0.0 | 0.0 | 0.00 | 0.00 | 0.00 | 80 | 1026.5 |
| 20260502020814 | 44 | 0 | 0.0 | 0.0 | 0.00 | 0.00 | 0.00 | 78 | 1026.6 |
| 20260502020059 | 44 | 0 | 0.0 | 0.0 | 0.00 | 0.00 | 0.00 | 78 | 1026.6 |
| 20260502015056 | 44 | 0 | 0.0 | 0.0 | 0.00 | 0.00 | 0.00 | 78 | 1026.6 |
| 20260502014337 | 45 | 0 | 0.0 | 0.0 | 0.00 | 0.00 | 0.00 | 78 | 1026.4 |
| 20260502013621 | 45 | 0 | 0.0 | 0.0 | 0.00 | 0.00 | 0.00 | 78 | 1026.6 |
| 20260502012903 | 46 | 0 | 0.0 | 0.0 | 0.00 | 0.00 | 0.00 | 76 | 1026.6 |
| 20260502012145 | 46 | 0 | 0.0 | 0.0 | 0.00 | 0.00 | 0.00 | 77 | 1026.8 |
| 20260502011415 | 46 | 0 | 0.0 | 0.0 | 0.00 | 0.00 | 0.00 | 78 | 1026.8 |
| 20260502010642 | 46 | 0 | 0.0 | 0.0 | 0.00 | 0.00 | 0.00 | 77 | 1026.8 |
| 20260502005905 | 46 | 0 | 0.0 | 0.0 | 0.00 | 0.00 | 0.00 | 76 | 1026.8 |
| 20260502005114 | 46 | 0 | 0.0 | 0.0 | 0.00 | 0.00 | 0.00 | 76 | 1026.8 |
| 20260502004321 | 47 | 0 | 0.0 | 0.0 | 0.00 | 0.00 | 0.00 | 75 | 1026.8 |
| 20260502003528 | 46 | 0 | 0.0 | 0.0 | 0.00 | 0.00 | 0.00 | 75 | 1026.8 |
| 20260502002732 | 47 | 0 | 0.0 | 0.0 | 0.00 | 0.00 | 0.00 | 74 | 1026.9 |
| 20260502001936 | 48 | 0 | 0.0 | 0.0 | 0.00 | 0.00 | 0.00 | 74 | 1027.0 |
| 20260502001142 | 48 | 0 | 0.0 | 0.0 | 0.00 | 0.00 | 0.00 | 73 | 1026.9 |
| 20260502000347 | 48 | 0 | 0.0 | 0.0 | 0.00 | 0.00 | 0.00 | 72 | 1027.0 |
| 20260501235254 | 48 | 0 | 0.0 | 0.0 | 0.00 | 0.00 | 0.00 | 72 | 1026.8 |
| 20260501234458 | 48 | 0 | 0.0 | 0.0 | 0.00 | 0.00 | 0.00 | 71 | 1027.0 |
| 20260501233711 | 48 | 0 | 0.0 | 0.0 | 0.00 | 0.00 | 0.00 | 71 | 1027.0 |
| 20260501232939 | 49 | 0 | 0.0 | 0.0 | 0.00 | 0.00 | 0.00 | 70 | 1027.2 |
| 20260501232210 | 49 | 0 | 0.0 | 0.0 | 0.00 | 0.00 | 0.00 | 70 | 1027.2 |
| 20260501231451 | 49 | 0 | 0.0 | 0.0 | 0.00 | 0.00 | 0.00 | 70 | 1027.2 |
| 20260501230733 | 50 | 0 | 0.0 | 0.0 | 0.00 | 0.00 | 0.00 | 68 | 1027.1 |
| 20260501230015 | 50 | 0 | 0.0 | 0.0 | 0.00 | 0.00 | 0.00 | 68 | 1027.1 |
| 20260501225257 | 50 | 0 | 0.0 | 0.0 | 0.00 | 0.00 | 0.00 | 68 | 1027.2 |
| 20260501224539 | 50 | 0 | 0.0 | 0.0 | 0.00 | 0.00 | 0.00 | 67 | 1027.8 |
| 20260501223822 | 50 | 0 | 0.0 | 0.0 | 0.00 | 0.00 | 0.00 | 68 | 1027.2 |
| 20260501223104 | 51 | 0 | 0.0 | 0.0 | 0.00 | 0.00 | 0.00 | 66 | 1027.1 |
| 20260501222345 | 51 | 0 | 0.0 | 0.0 | 0.00 | 0.00 | 0.00 | 66 | 1027.0 |
| 20260501221627 | 52 | 0 | 0.0 | 0.0 | 0.00 | 0.00 | 0.00 | 64 | 1027.2 |
| 20260501220909 | 52 | 0 | 0.0 | 0.0 | 0.00 | 0.00 | 0.00 | 64 | 1027.2 |
| 20260501215907 | 52 | 0 | 0.0 | 0.0 | 0.00 | 0.00 | 0.00 | 64 | 1027.2 |
| 20260501215148 | 52 | 0 | 0.0 | 0.0 | 0.00 | 0.00 | 0.00 | 64 | 1027.1 |
| 20260501214430 | 52 | 0 | 0.0 | 0.0 | 0.00 | 0.00 | 0.00 | 63 | 1027.1 |
| 20260501213712 | 52 | 0 | 0.0 | 0.0 | 0.00 | 0.00 | 0.00 | 64 | 1027.0 |
| 20260501212954 | 52 | 0 | 0.0 | 0.0 | 0.00 | 0.00 | 0.00 | 63 | 1027.0 |
| 20260501212235 | 52 | 0 | 0.0 | 0.0 | 0.00 | 0.00 | 0.00 | 63 | 1027.0 |
| 20260501211517 | 53 | 0 | 0.0 | 0.0 | 0.00 | 0.00 | 0.00 | 62 | 1027.0 |
| 20260501210759 | 54 | 0 | 0.0 | 0.0 | 0.00 | 0.00 | 0.00 | 62 | 1027.2 |
| 20260501210042 | 54 | 0 | 0.0 | 0.0 | 0.00 | 0.00 | 0.00 | 61 | 1027.6 |
| 20260501205323 | 54 | 0 | 0.0 | 0.0 | 0.00 | 0.00 | 0.00 | 60 | 1027.2 |
| 20260501204604 | 55 | 0 | 0.0 | 0.0 | 0.00 | 0.00 | 0.00 | 58 | 1027.2 |
| 20260501203845 | 55 | 0 | 0.0 | 0.0 | 0.00 | 0.00 | 0.00 | 58 | 1027.2 |
| 20260501203127 | 55 | 0 | 0.0 | 0.0 | 0.00 | 0.00 | 0.00 | 58 | 1027.2 |
| 20260501202407 | 56 | 0 | 0.0 | 0.0 | 0.00 | 0.00 | 0.00 | 55 | 1027.0 |
| 20260501195941 | 57 | 0 | 0.0 | 0.0 | 0.00 | 0.00 | 0.00 | 52 | 1027.0 |
| 20260501195222 | 58 | 0 | 0.0 | 0.0 | 0.00 | 0.00 | 0.00 | 50 | 1027.0 |
| 20260501194505 | 58 | 0 | 0.0 | 0.0 | 0.00 | 0.00 | 0.00 | 48 | 1027.0 |
| 20260501193747 | 60 | 0 | 0.0 | 0.0 | 0.00 | 0.00 | 0.00 | 46 | 1027.0 |
| 20260501193028 | 60 | 0 | 0.0 | 0.0 | 0.00 | 0.00 | 0.00 | 45 | 1027.0 |
| 20260501192308 | 60 | 0 | 0.0 | 0.0 | 0.00 | 0.00 | 0.00 | 44 | 1027.0 |
| 20260501191549 | 60 | 0 | 0.0 | 0.0 | 0.00 | 0.00 | 0.00 | 44 | 1027.0 |
| 20260501190831 | 60 | 0 | 0.0 | 0.0 | 0.00 | 0.00 | 0.00 | 44 | 1027.0 |
| 20260501184645 | 62 | 0 | 0.0 | 0.0 | 0.00 | 0.00 | 0.00 | 42 | 1026.8 |
| 20260501183927 | 62 | 0 | 0.0 | 0.0 | 0.00 | 0.00 | 0.00 | 42 | 1026.8 |
| 20260501183209 | 62 | 0 | 0.0 | 0.0 | 0.00 | 0.00 | 0.00 | 42 | 1026.7 |
| 20260501182448 | 62 | 0 | 0.0 | 0.0 | 0.00 | 0.00 | 0.00 | 42 | 1026.6 |